Hourly Weather Aliaga

Today, 3 March, Wednesday

Time Temperature Precipitation Wind Pressure Humidity
00:00 +5°C° 0 mm 1 mps 664 mmHg 88%
01:00 +5°C° 0 mm 1 mps 664 mmHg 88%
02:00 +5°C° 0 mm 1 mps 663 mmHg 87%
03:00 +5°C° 0 mm 1 mps 663 mmHg 87%
04:00 +4°C° 0 mm 1 mps 663 mmHg 87%
05:00 +3°C° 0 mm 0 mps 663 mmHg 87%
06:00 +3°C° 0 mm 0 mps 663 mmHg 87%
07:00 +5°C° 0 mm 0 mps 664 mmHg 78%
08:00 +8°C° 0 mm 1 mps 664 mmHg 70%
09:00 +10°C° 0 mm 1 mps 665 mmHg 61%
10:00 +11°C° 0 mm 1 mps 665 mmHg 56%
11:00 +12°C° 0 mm 1 mps 665 mmHg 51%
12:00 +13°C° 0 mm 1 mps 666 mmHg 46%
13:00 +14°C° 0.1 mm 2 mps 665 mmHg 47%
14:00 +14°C° 0.1 mm 2 mps 665 mmHg 48%
15:00 +13°C° 0.1 mm 3 mps 664 mmHg 49%
16:00 +12°C° 0.2 mm 2 mps 664 mmHg 58%
17:00 +10°C° 0.2 mm 2 mps 663 mmHg 66%
18:00 +8°C° 0.2 mm 2 mps 663 mmHg 75%
19:00 +8°C° 0 mm 1 mps 662 mmHg 78%
20:00 +7°C° 0 mm 1 mps 662 mmHg 82%
21:00 +6°C° 0 mm 0 mps 662 mmHg 85%
22:00 +5°C° 0 mm 0 mps 662 mmHg 86%
23:00 +5°C° 0 mm 0 mps 662 mmHg 86%

Tomorrow, 4 March, Thursday

Time Temperature Precipitation Wind Pressure Humidity
00:00 +5°C° 0 mm 0 mps 662 mmHg 86%
01:00 +4°C° 0 mm 0 mps 661 mmHg 86%
02:00 +4°C° 0 mm 0 mps 660 mmHg 86%
03:00 +3°C° 0 mm 0 mps 660 mmHg 86%
04:00 +3°C° 0 mm 0 mps 659 mmHg 86%
05:00 +3°C° 0 mm 0 mps 659 mmHg 85%
06:00 +2°C° 0 mm 0 mps 659 mmHg 85%
07:00 +4°C° 0 mm 0 mps 659 mmHg 77%
08:00 +6°C° 0 mm 0 mps 660 mmHg 69%
09:00 +9°C° 0 mm 1 mps 660 mmHg 61%
10:00 +10°C° 0 mm 1 mps 660 mmHg 56%
11:00 +12°C° 0 mm 2 mps 660 mmHg 51%
12:00 +12°C° 0 mm 3 mps 660 mmHg 46%
13:00 +12°C° 0 mm 3 mps 660 mmHg 48%
14:00 +12°C° 0 mm 4 mps 659 mmHg 49%
15:00 +12°C° 0 mm 4 mps 658 mmHg 50%
16:00 +10°C° 0 mm 3 mps 658 mmHg 58%
17:00 +9°C° 0 mm 3 mps 657 mmHg 66%
18:00 +7°C° 0 mm 2 mps 657 mmHg 75%
19:00 +7°C° 0 mm 1 mps 657 mmHg 80%
20:00 +7°C° 0 mm 1 mps 657 mmHg 85%
21:00 +5°C° 0 mm 0 mps 657 mmHg 90%
22:00 +4°C° 0 mm 0 mps 656 mmHg 91%
23:00 +4°C° 0 mm 0 mps 656 mmHg 92%

Day after tomorrow, 5 March, Friday

Time Temperature Precipitation Wind Pressure Humidity
00:00 +3°C° 0 mm 0 mps 656 mmHg 93%
01:00 +3°C° 0 mm 0 mps 655 mmHg 93%
02:00 +3°C° 0 mm 0 mps 655 mmHg 93%
03:00 +2°C° 0 mm 0 mps 655 mmHg 93%
04:00 +2°C° 0 mm 0 mps 654 mmHg 93%
05:00 +2°C° 0 mm 0 mps 654 mmHg 94%
06:00 +2°C° 0 mm 1 mps 654 mmHg 94%
07:00 +4°C° 0 mm 1 mps 655 mmHg 86%
08:00 +6°C° 0 mm 1 mps 655 mmHg 78%
09:00 +8°C° 0 mm 1 mps 656 mmHg 70%
10:00 +9°C° 0 mm 1 mps 656 mmHg 64%
11:00 +9°C° 0 mm 2 mps 656 mmHg 58%
12:00 +10°C° 0 mm 3 mps 656 mmHg 51%
13:00 +11°C° 0 mm 3 mps 656 mmHg 51%
14:00 +11°C° 0 mm 3 mps 656 mmHg 50%
15:00 +11°C° 0 mm 3 mps 656 mmHg 50%
16:00 +9°C° 0 mm 3 mps 655 mmHg 56%
17:00 +8°C° 0 mm 2 mps 655 mmHg 63%
18:00 +7°C° 0 mm 2 mps 655 mmHg 69%
19:00 +6°C° 0 mm 2 mps 655 mmHg 73%
20:00 +6°C° 0 mm 1 mps 656 mmHg 77%
21:00 +5°C° 0 mm 1 mps 656 mmHg 80%
22:00 +5°C° 0 mm 1 mps 656 mmHg 83%
23:00 +5°C° 0 mm 1 mps 656 mmHg 86%

6 March, Saturday

Time Temperature Precipitation Wind Pressure Humidity
00:00 +4°C° 0 mm 1 mps 656 mmHg 89%
01:00 +4°C° 0 mm 1 mps 656 mmHg 90%
02:00 +4°C° 0 mm 1 mps 656 mmHg 92%
03:00 +3°C° 0 mm 1 mps 656 mmHg 93%
04:00 +3°C° 0 mm 1 mps 656 mmHg 92%
05:00 +3°C° 0 mm 1 mps 656 mmHg 91%
06:00 +3°C° 0 mm 1 mps 657 mmHg 91%
07:00 +4°C° 0 mm 1 mps 657 mmHg 84%
08:00 +5°C° 0 mm 1 mps 658 mmHg 78%
09:00 +6°C° 0 mm 1 mps 658 mmHg 72%
10:00 +6°C° 0 mm 2 mps 659 mmHg 67%
11:00 +7°C° 0 mm 2 mps 659 mmHg 61%
12:00 +8°C° 0 mm 2 mps 659 mmHg 55%
13:00 +9°C° 0 mm 2 mps 659 mmHg 54%
14:00 +9°C° 0 mm 3 mps 659 mmHg 54%
15:00 +10°C° 0 mm 3 mps 659 mmHg 53%
16:00 +8°C° 0 mm 3 mps 659 mmHg 59%
17:00 +7°C° 0 mm 3 mps 658 mmHg 66%
18:00 +5°C° 0 mm 3 mps 658 mmHg 72%
19:00 +5°C° 0 mm 2 mps 658 mmHg 78%
20:00 +5°C° 0 mm 1 mps 659 mmHg 83%
21:00 +4°C° 0 mm 1 mps 659 mmHg 89%
22:00 +4°C° 0 mm 1 mps 659 mmHg 89%
23:00 +4°C° 0 mm 1 mps 659 mmHg 90%

7 March, Sunday

Time Temperature Precipitation Wind Pressure Humidity
00:00 +3°C° 0 mm 1 mps 659 mmHg 90%
01:00 +2°C° 0 mm 0 mps 658 mmHg 91%
02:00 +2°C° 0 mm 0 mps 658 mmHg 91%
03:00 +1°C° 0 mm 0 mps 658 mmHg 91%
04:00 +1°C° 0 mm 0 mps 657 mmHg 91%
05:00 +1°C° 0 mm 0 mps 657 mmHg 91%
06:00 0°C° 0 mm 0 mps 657 mmHg 92%
07:00 +2°C° 0 mm 0 mps 658 mmHg 84%
08:00 +4°C° 0 mm 0 mps 658 mmHg 77%
09:00 +5°C° 0 mm 0 mps 659 mmHg 70%
10:00 +7°C° 0 mm 1 mps 659 mmHg 66%
11:00 +9°C° 0 mm 1 mps 659 mmHg 61%
12:00 +10°C° 0 mm 1 mps 659 mmHg 56%
13:00 +10°C° 0.1 mm 1 mps 659 mmHg 57%
14:00 +10°C° 0.1 mm 1 mps 658 mmHg 57%
15:00 +9°C° 0.1 mm 2 mps 658 mmHg 57%
16:00 +8°C° 0 mm 2 mps 657 mmHg 63%
17:00 +7°C° 0 mm 2 mps 657 mmHg 69%
18:00 +6°C° 0 mm 2 mps 656 mmHg 75%
19:00 +6°C° 0 mm 2 mps 656 mmHg 79%
20:00 +5°C° 0 mm 2 mps 656 mmHg 83%
21:00 +5°C° 0 mm 1 mps 657 mmHg 86%
22:00 +5°C° 0 mm 1 mps 656 mmHg 87%
23:00 +5°C° 0 mm 1 mps 656 mmHg 88%

8 March, Monday

Time Temperature Precipitation Wind Pressure Humidity
00:00 +5°C° 0 mm 1 mps 656 mmHg 88%
01:00 +5°C° 0 mm 1 mps 656 mmHg 89%
02:00 +4°C° 0 mm 1 mps 655 mmHg 91%
03:00 +3°C° 0 mm 0 mps 655 mmHg 92%
04:00 +2°C° 0 mm 0 mps 655 mmHg 92%
05:00 +2°C° 0 mm 0 mps 654 mmHg 93%
06:00 +2°C° 0 mm 0 mps 654 mmHg 93%
07:00 +4°C° 0 mm 1 mps 655 mmHg 87%
08:00 +6°C° 0 mm 1 mps 655 mmHg 80%
09:00 +8°C° 0 mm 1 mps 656 mmHg 74%
10:00 +8°C° 0.3 mm 1 mps 656 mmHg 69%
11:00 +8°C° 0.3 mm 2 mps 656 mmHg 64%
12:00 +9°C° 0.3 mm 2 mps 656 mmHg 60%
13:00 +9°C° 0.5 mm 3 mps 655 mmHg 61%
14:00 +9°C° 0.5 mm 3 mps 655 mmHg 62%
15:00 +9°C° 0.5 mm 3 mps 654 mmHg 63%
16:00 +8°C° 0.2 mm 2 mps 654 mmHg 66%
17:00 +7°C° 0.2 mm 2 mps 654 mmHg 70%
18:00 +7°C° 0.2 mm 2 mps 654 mmHg 73%
19:00 +7°C° 0 mm 1 mps 654 mmHg 77%
20:00 +6°C° 0 mm 1 mps 654 mmHg 80%
21:00 +5°C° 0 mm 1 mps 654 mmHg 84%
22:00 +5°C° 0 mm 1 mps 654 mmHg 85%
23:00 +4°C° 0 mm 1 mps 654 mmHg 86%
Show more